period_start,C,m1,H,J0,J1,J2,J3,J4,J5,JA,JB,JC,JD,JJ,JK,JN,#
2017-08-19 00:01:54,-0.00,0.92,0.00,25.52,29.60,32.10,13.71,43.16,1013.69,2022.99,3124.73,2833.99,3216.44,600.36,589.68,39.20,0000 0000 0000 0000 000000
2017-08-19 00:06:55,-0.00,0.92,0.00,25.51,29.57,32.10,13.69,43.21,1013.70,2022.99,3124.47,2834.01,3216.54,600.18,589.47,39.25,0000 0000 0000 0000 000000
2017-08-19 00:11:57,-0.01,0.92,0.00,25.50,29.56,32.07,13.75,43.27,1013.70,2022.99,3124.83,2834.02,3216.88,599.88,589.28,39.31,0000 0000 0000 0000 000000
2017-08-19 00:16:58,0.00,0.92,0.00,25.48,29.55,32.05,13.73,43.20,1013.69,2023.00,3124.92,2834.06,3216.96,600.27,589.64,39.36,0000 0000 0000 0000 000000
2017-08-19 00:21:59,0.00,0.92,0.00,25.48,29.53,32.05,13.75,43.29,1013.69,2023.01,3124.96,2834.08,3216.97,600.12,589.53,39.41,0000 0000 0000 0000 000000
2017-08-19 00:27:00,-0.00,0.92,0.00,25.49,29.52,32.02,13.76,43.24,1013.71,2023.03,3124.93,2834.13,3216.99,600.09,589.50,39.46,0000 0000 0000 0000 000000
2017-08-19 00:32:02,0.01,0.92,0.00,25.52,29.50,32.00,13.77,43.33,1013.70,2023.05,3124.72,2834.16,3216.86,600.32,589.55,39.51,0000 0000 0000 0000 000000
2017-08-19 00:37:03,0.11,0.92,0.00,25.59,29.50,31.97,13.75,43.42,1013.70,2023.18,3122.73,2833.29,3215.55,600.26,589.43,39.56,0000 0000 0000 0000 000000
2017-08-19 00:42:04,0.07,0.93,0.00,25.67,29.50,31.93,13.65,43.26,1013.69,2023.26,3120.96,2832.22,3214.49,599.77,588.83,39.61,0000 0000 0000 0000 000000
2017-08-19 00:47:06,0.06,0.93,0.00,25.74,29.50,31.90,13.73,43.25,1013.69,2023.15,3119.25,2831.19,3213.25,599.82,588.72,39.66,0000 0000 0000 0000 000000
2017-08-19 00:52:07,0.06,0.93,0.00,25.85,29.51,31.91,13.73,43.32,1013.70,2023.08,3117.67,2830.16,3212.17,600.35,589.02,39.71,0000 0000 0000 0000 000000
2017-08-19 00:57:08,0.02,0.93,0.00,25.94,29.53,31.93,13.67,43.32,1013.69,2023.03,3116.97,2829.77,3211.68,599.99,588.44,39.76,0000 0000 0000 0000 000000
2017-08-19 01:02:09,0.04,0.94,0.00,26.04,29.56,31.97,13.69,43.33,1013.69,2023.01,3116.14,2829.05,3211.03,599.93,588.16,39.81,0000 0000 0000 0000 000000
2017-08-19 01:07:11,0.00,0.94,0.00,26.13,29.60,32.03,13.65,43.34,1013.69,2023.00,3115.98,2828.98,3210.93,600.26,588.36,39.86,0000 0000 0000 0000 000000
2017-08-19 01:12:13,0.04,0.94,0.00,26.21,29.64,32.08,13.65,43.22,1013.69,2022.99,3115.46,2828.48,3210.16,599.77,587.76,39.91,0000 0000 0000 0000 000000
2017-08-19 01:17:14,-0.00,0.94,0.00,26.29,29.69,32.15,13.65,43.24,1013.70,2022.92,3115.02,2828.02,3209.99,599.61,587.43,39.96,0000 0000 0000 0000 000000
2017-08-19 01:22:15,-0.04,0.94,0.00,26.36,29.74,32.21,13.68,43.23,1013.69,2022.24,3114.80,2827.91,3209.48,599.85,587.50,40.01,0000 0000 0000 0000 000000
2017-08-19 01:27:17,0.02,0.94,0.00,26.42,29.78,32.30,13.67,43.24,1013.69,2022.02,3114.06,2827.14,3209.01,599.75,587.29,40.06,0000 0000 0000 0000 000000
2017-08-19 01:32:18,0.01,0.94,0.00,26.47,29.84,32.37,13.63,43.25,1013.70,2021.99,3113.91,2826.99,3208.58,599.94,587.39,40.11,0000 0000 0000 0000 000000
2017-08-19 01:37:20,0.04,0.94,0.00,26.52,29.89,32.44,13.70,43.32,1013.70,2021.89,3113.14,2826.35,3208.02,600.09,587.37,40.17,0000 0000 0000 0000 000000
2017-08-19 01:42:21,-0.06,0.94,0.00,26.56,29.95,32.53,13.62,43.29,1013.69,2021.21,3112.98,2826.00,3207.71,599.91,587.25,40.22,0000 0000 0000 0000 000000
2017-08-19 01:47:22,0.02,0.94,0.00,26.60,30.00,32.60,13.66,43.40,1013.70,2021.03,3112.54,2825.86,3207.05,599.98,587.23,40.27,0000 0000 0000 0000 000000
2017-08-19 01:52:23,0.02,0.94,0.00,26.63,30.06,32.69,13.68,43.33,1013.70,2021.00,3112.03,2825.14,3206.97,599.99,587.08,40.32,0000 0000 0000 0000 000000
2017-08-19 01:57:25,0.01,0.94,0.00,26.66,30.12,32.77,13.68,43.29,1013.72,2020.93,3111.99,2825.00,3206.33,599.74,586.88,40.37,0000 0000 0000 0000 000000
2017-08-19 02:02:26,-0.04,0.94,0.00,26.68,30.18,32.84,13.64,43.43,1013.81,2020.51,3111.77,2824.90,3206.00,599.86,586.84,40.42,0000 0000 0000 0000 000000
2017-08-19 02:07:27,0.01,0.94,0.00,26.70,30.23,32.90,13.63,43.23,1013.96,2020.05,3111.09,2824.18,3205.80,599.97,587.12,40.47,0000 0000 0000 0000 000000
2017-08-19 02:12:28,0.01,0.94,0.00,26.72,30.28,32.97,13.69,43.34,1013.98,2020.00,3110.99,2823.99,3205.10,600.12,587.22,40.52,0000 0000 0000 0000 000000
2017-08-19 02:17:30,0.00,0.94,0.00,26.72,30.33,33.08,13.68,43.32,1013.90,2019.98,3110.85,2823.88,3204.99,600.29,587.37,40.57,0000 0000 0000 0000 000000
2017-08-19 02:22:32,-0.01,0.94,0.00,26.73,30.38,33.19,13.69,43.26,1014.00,2019.55,3110.09,2823.14,3204.60,599.49,586.58,40.62,0000 0000 0000 0000 000000
2017-08-19 02:27:33,-0.01,0.94,0.00,26.74,30.43,33.34,13.65,43.21,1013.90,2019.04,3109.99,2823.00,3204.03,600.33,587.27,40.67,0000 0000 0000 0000 000000
2017-08-19 02:32:34,0.00,0.94,0.00,26.75,30.48,33.37,13.69,43.21,1013.75,2019.00,3109.97,2822.92,3203.99,599.84,586.78,40.72,0000 0000 0000 0000 000000
2017-08-19 02:37:35,0.04,0.94,0.00,26.75,30.52,33.49,13.66,43.29,1013.71,2019.00,3109.43,2822.34,3203.60,599.76,586.70,40.77,0000 0000 0000 0000 000000
2017-08-19 02:42:37,0.00,0.94,0.00,26.75,30.56,33.55,13.70,43.27,1013.71,2018.94,3109.02,2822.01,3203.04,600.32,587.16,40.82,0000 0000 0000 0000 000000
2017-08-19 02:47:38,-0.02,0.94,0.00,26.75,30.60,33.65,13.74,43.19,1013.74,2018.71,3108.98,2822.00,3202.99,600.14,587.02,40.87,0000 0000 0000 0000 000000
2017-08-19 02:52:40,-0.03,0.94,0.00,26.75,30.64,33.64,13.68,43.19,1013.80,2018.11,3108.69,2821.77,3202.64,600.04,587.01,40.92,0000 0000 0000 0000 000000
2017-08-19 02:57:41,0.02,0.94,0.00,26.74,30.67,33.72,13.71,43.25,1013.90,2018.00,3108.12,2821.14,3202.04,599.90,586.70,40.97,0000 0000 0000 0000 000000
2017-08-19 03:02:42,0.00,0.94,0.00,26.74,30.71,33.77,13.64,43.13,1013.95,2018.00,3108.01,2821.00,3202.00,599.59,586.67,41.02,0000 0000 0000 0000 000000
2017-08-19 03:07:43,-0.00,0.94,0.00,26.74,30.74,33.82,13.70,43.27,1013.95,2017.97,3108.00,2820.99,3201.96,600.21,587.40,41.07,0000 0000 0000 0000 000000
2017-08-19 03:12:44,0.01,0.94,0.00,26.74,30.76,33.87,13.65,43.28,1014.07,2017.93,3107.86,2820.95,3201.51,599.96,587.08,41.12,0000 0000 0000 0000 000000
2017-08-19 03:17:46,-0.01,0.94,0.00,26.72,30.79,33.92,13.69,43.34,1014.13,2017.49,3107.22,2820.44,3201.04,599.97,587.16,41.18,0000 0000 0000 0000 000000
2017-08-19 03:22:47,-0.02,0.94,0.00,26.72,30.82,33.96,13.74,43.15,1014.12,2017.12,3107.01,2820.04,3201.00,600.19,587.32,41.23,0000 0000 0000 0000 000000
2017-08-19 03:27:48,-0.00,0.94,0.00,26.72,30.84,33.93,13.67,43.32,1014.15,2017.01,3107.00,2820.00,3200.97,599.89,587.15,41.28,0000 0000 0000 0000 000000
2017-08-19 03:32:49,0.00,0.94,0.00,26.71,30.86,33.99,13.71,43.34,1014.17,2017.01,3106.98,2820.00,3200.77,600.11,587.29,41.33,0000 0000 0000 0000 000000
2017-08-19 03:37:51,0.01,0.94,0.00,26.70,30.88,34.00,13.74,43.24,1014.17,2017.00,3106.89,2819.99,3200.16,600.02,587.29,41.38,0000 0000 0000 0000 000000
2017-08-19 03:42:52,0.01,0.94,0.00,26.69,30.90,34.01,13.68,43.25,1014.17,2017.00,3106.53,2819.93,3200.03,600.15,587.44,41.43,0000 0000 0000 0000 000000
2017-08-19 03:47:53,0.02,0.94,0.00,26.68,30.92,34.03,13.73,43.29,1014.17,2016.99,3106.10,2819.44,3200.00,600.06,587.37,41.48,0000 0000 0000 0000 000000
2017-08-19 03:52:54,0.00,0.94,0.00,26.67,30.92,34.00,13.68,43.32,1014.17,2016.97,3106.00,2819.05,3200.00,599.74,587.23,41.53,0000 0000 0000 0000 000000
2017-08-19 03:57:55,-0.00,0.94,0.00,26.66,30.95,34.02,13.71,43.33,1014.17,2016.94,3106.00,2819.01,3199.86,599.86,587.28,41.58,0000 0000 0000 0000 000000
2017-08-19 04:02:57,0.00,0.94,0.00,26.65,30.95,34.00,13.70,43.31,1014.17,2016.83,3105.93,2819.00,3199.21,600.02,587.42,41.63,0000 0000 0000 0000 000000
2017-08-19 04:07:58,-0.00,0.94,0.00,26.63,30.97,34.00,13.75,43.38,1014.17,2016.70,3105.51,2818.99,3199.03,600.15,587.56,41.68,0000 0000 0000 0000 000000
2017-08-19 04:12:59,-0.03,0.94,0.00,26.62,30.97,34.00,13.74,43.37,1014.17,2016.29,3105.02,2818.85,3199.00,600.06,587.47,41.73,0000 0000 0000 0000 000000
2017-08-19 04:18:00,0.01,0.94,0.00,26.61,30.97,33.99,13.72,43.34,1014.16,2016.14,3105.00,2818.57,3198.99,599.95,587.33,41.78,0000 0000 0000 0000 000000
2017-08-19 04:23:02,0.01,0.94,0.00,26.60,30.99,34.00,13.70,43.38,1014.15,2016.11,3104.96,2818.25,3198.97,599.86,587.40,41.83,0000 0000 0000 0000 000000
2017-08-19 04:28:03,0.00,0.94,0.00,26.60,31.00,33.99,13.73,43.31,1014.15,2016.03,3104.81,2818.05,3198.78,599.94,587.40,41.88,0000 0000 0000 0000 000000
2017-08-19 04:33:04,0.01,0.94,0.00,26.58,31.00,33.97,13.70,43.22,1014.13,2016.01,3104.32,2818.00,3198.27,599.85,587.24,41.93,0000 0000 0000 0000 000000
2017-08-19 04:38:06,0.00,0.94,0.00,26.57,31.00,33.97,13.73,43.28,1014.08,2016.01,3104.36,2818.00,3198.14,600.05,587.48,41.98,0000 0000 0000 0000 000000
2017-08-19 04:43:07,0.00,0.94,0.00,26.56,31.00,34.00,13.73,43.24,1014.07,2016.01,3104.24,2818.00,3198.12,599.88,587.36,42.03,0000 0000 0000 0000 000000
2017-08-19 04:48:09,0.00,0.94,0.00,26.55,31.00,33.98,13.66,43.21,1014.15,2016.01,3104.04,2818.00,3198.04,599.82,587.41,42.09,0000 0000 0000 0000 000000
2017-08-19 04:53:10,-0.00,0.94,0.00,26.55,31.00,33.94,13.74,43.33,1014.16,2016.01,3104.01,2818.00,3198.02,600.00,587.53,42.14,0000 0000 0000 0000 000000
2017-08-19 04:58:11,-0.00,0.94,0.00,26.53,31.00,33.92,13.71,43.23,1014.16,2016.00,3104.01,2818.00,3198.01,600.15,587.77,42.19,0000 0000 0000 0000 000000
2017-08-19 05:03:12,0.00,0.94,0.00,26.51,31.00,33.92,13.71,43.35,1014.17,2016.00,3104.00,2818.00,3198.00,600.00,587.68,42.24,0000 0000 0000 0000 000000
2017-08-19 05:08:13,0.00,0.94,0.00,26.49,31.00,33.89,13.73,43.24,1014.17,2016.00,3104.00,2817.99,3198.00,599.81,587.49,42.29,0000 0000 0000 0000 000000
2017-08-19 05:13:15,0.00,0.94,0.00,26.49,31.00,33.90,13.74,43.25,1014.16,2016.00,3104.00,2817.98,3198.00,600.21,587.82,42.34,0000 0000 0000 0000 000000
2017-08-19 05:18:16,0.00,0.94,0.00,26.47,31.00,33.87,13.69,43.27,1014.17,2016.00,3103.99,2817.98,3198.00,599.97,587.69,42.39,0000 0000 0000 0000 000000
2017-08-19 05:23:17,0.00,0.94,0.00,26.47,31.00,33.85,13.73,43.22,1014.17,2016.00,3103.92,2817.96,3197.99,599.90,587.62,42.44,0000 0000 0000 0000 000000
2017-08-19 05:28:19,-0.00,0.94,0.00,26.45,30.99,33.86,13.76,43.23,1014.17,2016.00,3103.75,2817.96,3197.97,599.96,587.84,42.49,0000 0000 0000 0000 000000
2017-08-19 05:33:20,0.01,0.94,0.00,26.45,30.98,33.87,13.72,43.26,1014.17,2016.00,3103.39,2817.90,3197.97,599.88,587.64,42.54,0000 0000 0000 0000 000000
2017-08-19 05:38:21,0.01,0.94,0.00,26.43,30.97,33.82,13.71,43.26,1014.18,2016.00,3103.11,2817.88,3197.90,600.01,587.88,42.59,0000 0000 0000 0000 000000
2017-08-19 05:43:22,0.01,0.94,0.00,26.41,30.97,33.83,13.71,43.35,1014.18,2016.00,3103.02,2817.74,3197.70,599.98,587.81,42.64,0000 0000 0000 0000 000000
2017-08-19 05:48:23,0.00,0.94,0.00,26.40,30.97,33.82,13.74,43.42,1014.18,2016.00,3103.00,2817.57,3197.46,600.09,587.88,42.69,0000 0000 0000 0000 000000
2017-08-19 05:53:24,0.01,0.94,0.00,26.40,30.96,33.76,13.69,43.40,1014.18,2016.00,3103.00,2817.42,3197.23,599.78,587.61,42.74,0000 0000 0000 0000 000000
2017-08-19 05:58:26,-0.01,0.94,0.00,26.39,30.95,33.77,13.76,43.49,1014.18,2016.03,3103.00,2817.60,3197.39,599.90,587.87,42.79,0000 0000 0000 0000 000000
2017-08-19 06:03:27,0.01,0.94,0.00,26.37,30.95,33.77,13.71,43.40,1014.18,2016.05,3103.00,2817.64,3197.34,599.63,587.55,42.84,0000 0000 0000 0000 000000
2017-08-19 06:08:28,-0.00,0.94,0.00,26.36,30.95,33.78,13.72,43.43,1014.18,2016.03,3102.99,2817.69,3197.37,600.13,588.10,42.89,0000 0000 0000 0000 000000
2017-08-19 06:13:29,0.01,0.94,0.00,26.35,30.93,33.75,13.77,43.47,1014.18,2016.07,3102.98,2817.75,3197.40,600.15,588.06,42.94,0000 0000 0000 0000 000000
2017-08-19 06:18:31,-0.00,0.94,0.00,26.34,30.92,33.75,13.74,43.28,1014.18,2016.06,3102.99,2817.74,3197.41,599.74,587.71,42.99,0000 0000 0000 0000 000000
2017-08-19 06:23:32,0.01,0.94,0.00,26.33,30.92,33.72,13.73,43.29,1014.18,2016.07,3102.92,2817.56,3197.17,600.02,588.01,43.05,0000 0000 0000 0000 000000
2017-08-19 06:28:33,0.04,0.95,0.00,26.32,30.90,33.72,13.69,43.37,1014.18,2016.23,3102.47,2817.33,3197.05,600.03,588.05,43.10,0000 0000 0000 0000 000000
2017-08-19 06:33:35,0.10,0.95,0.00,26.30,30.90,33.67,13.72,43.34,1014.18,2016.24,3101.19,2816.26,3196.03,599.75,587.82,43.15,0000 0000 0000 0000 000000
2017-08-19 06:38:36,0.13,0.96,0.00,26.29,30.90,33.67,13.71,43.41,1014.18,2016.34,3098.92,2814.24,3193.65,599.92,588.00,43.20,0000 0000 0000 0000 000000
2017-08-19 06:43:37,0.04,0.96,0.00,26.27,30.88,33.66,13.71,43.30,1014.18,2016.44,3098.02,2813.65,3193.00,600.09,588.19,43.25,0000 0000 0000 0000 000000
2017-08-19 06:48:39,0.05,0.96,0.00,26.27,30.87,33.66,13.71,43.49,1014.19,2016.71,3097.67,2813.20,3192.94,599.91,588.00,43.30,0000 0000 0000 0000 000000
2017-08-19 06:53:40,0.01,0.96,0.00,26.25,30.87,33.65,13.78,43.38,1014.19,2016.86,3097.20,2813.06,3192.85,600.22,588.27,43.35,0000 0000 0000 0000 000000
2017-08-19 06:58:42,0.01,0.96,0.00,26.24,30.85,33.62,13.73,43.43,1014.19,2016.84,3097.03,2813.01,3192.38,599.82,588.00,43.40,0000 0000 0000 0000 000000
2017-08-19 07:03:43,0.01,0.96,0.00,26.23,30.85,33.65,13.75,43.46,1014.25,2016.92,3097.00,2813.00,3192.21,599.84,588.06,43.45,0000 0000 0000 0000 000000
2017-08-19 07:08:44,0.01,0.96,0.00,26.22,30.84,33.62,13.73,43.41,1014.38,2016.96,3096.75,2812.99,3192.02,599.94,588.22,43.50,0000 0000 0000 0000 000000
2017-08-19 07:13:45,0.01,0.97,0.00,26.22,30.82,33.57,13.77,43.48,1014.44,2016.94,3096.15,2812.98,3192.00,599.97,588.29,43.55,0000 0000 0000 0000 000000
2017-08-19 07:18:47,0.00,0.97,0.00,26.20,30.82,33.60,13.81,43.49,1014.56,2016.97,3096.02,2812.97,3191.99,600.05,588.64,43.60,0000 0000 0000 0000 000000
2017-08-19 07:23:48,0.00,0.97,0.00,26.20,30.81,33.61,13.68,43.40,1014.65,2016.97,3096.07,2812.96,3191.99,599.77,588.30,43.65,0000 0000 0000 0000 000000
2017-08-19 07:28:49,0.00,0.97,0.00,26.18,30.80,33.55,13.73,43.38,1014.65,2016.99,3096.10,2812.97,3191.99,600.03,588.60,43.70,0000 0000 0000 0000 000000
2017-08-19 07:33:51,0.02,0.97,0.00,26.16,30.80,33.55,13.75,43.48,1014.66,2016.98,3095.98,2812.61,3191.95,600.08,588.67,43.75,0000 0000 0000 0000 000000
2017-08-19 07:38:52,0.01,0.97,0.00,26.15,30.78,33.54,13.82,43.49,1014.66,2016.99,3095.83,2812.34,3191.85,600.18,588.80,43.80,0000 0000 0000 0000 000000
2017-08-19 07:43:53,-0.01,0.97,0.00,26.15,30.77,33.55,13.79,43.38,1014.66,2016.99,3095.90,2812.45,3191.90,599.95,588.57,43.85,0000 0000 0000 0000 000000
2017-08-19 07:48:55,0.00,0.97,0.00,26.15,30.77,33.52,13.70,43.32,1014.66,2016.99,3095.85,2812.54,3191.96,600.11,588.74,43.90,0000 0000 0000 0000 000000
2017-08-19 07:53:56,0.01,0.97,0.00,26.13,30.75,33.51,13.73,43.41,1014.66,2016.99,3095.66,2812.40,3191.90,599.90,588.56,43.96,0000 0000 0000 0000 000000
2017-08-19 07:58:58,0.01,0.97,0.00,26.12,30.75,33.52,13.72,43.50,1014.66,2016.99,3095.25,2812.25,3191.78,600.03,588.67,44.01,0000 0000 0000 0000 000000
2017-08-19 08:03:59,0.00,0.97,0.00,26.11,30.74,33.50,13.72,43.46,1014.68,2016.99,3095.09,2812.24,3191.71,599.87,588.62,44.06,0000 0000 0000 0000 000000
2017-08-19 08:09:00,-0.00,0.97,0.00,26.10,30.72,33.50,13.70,43.45,1014.69,2017.00,3095.19,2812.38,3191.87,599.75,588.48,44.11,0000 0000 0000 0000 000000
2017-08-19 08:14:02,0.00,0.97,0.00,26.09,30.72,33.47,13.79,43.47,1014.74,2017.00,3095.12,2812.36,3191.89,600.10,588.92,44.16,0000 0000 0000 0000 000000
2017-08-19 08:19:03,0.01,0.97,0.00,26.07,30.70,33.43,13.75,43.47,1014.86,2017.02,3095.01,2812.22,3191.74,599.76,588.66,44.21,0000 0000 0000 0000 000000
2017-08-19 08:24:04,0.01,0.97,0.00,26.07,30.70,33.44,13.72,43.50,1015.01,2017.03,3094.98,2812.04,3191.23,599.91,588.82,44.26,0000 0000 0000 0000 000000
2017-08-19 08:29:06,0.01,0.97,0.00,26.05,30.69,33.45,13.79,43.47,1015.09,2017.03,3094.33,2812.00,3191.00,599.91,589.02,44.31,0000 0000 0000 0000 000000
2017-08-19 08:34:07,0.01,0.97,0.00,26.05,30.67,33.41,13.83,43.48,1015.12,2017.07,3093.99,2812.00,3190.99,600.32,589.40,44.36,0000 0000 0000 0000 000000
2017-08-19 08:39:09,0.01,0.97,0.00,26.04,30.67,33.44,13.79,43.48,1015.13,2017.14,3093.92,2811.97,3190.95,600.31,589.30,44.41,0000 0000 0000 0000 000000
2017-08-19 08:44:10,0.09,0.97,0.00,26.02,30.66,33.40,13.79,43.52,1015.14,2017.22,3092.61,2811.15,3189.88,600.25,589.41,44.46,0000 0000 0000 0000 000000
2017-08-19 08:49:12,0.58,1.00,0.00,26.01,30.65,33.43,13.73,43.47,1015.15,2017.47,3083.95,2804.15,3182.38,599.66,588.82,44.51,0000 0000 0000 0000 000000
2017-08-19 08:54:13,0.06,1.01,0.00,26.00,30.64,33.39,13.73,43.47,1015.15,2017.33,3080.50,2801.72,3179.79,599.90,589.20,44.56,0000 0000 0000 0000 000000
2017-08-19 08:59:14,0.25,1.02,0.00,25.99,30.62,33.38,13.73,43.43,1015.15,2017.62,3076.79,2799.26,3177.07,600.00,589.28,44.61,0000 0000 0000 0000 000000
2017-08-19 09:04:15,1.09,1.05,0.00,25.98,30.62,33.39,13.75,43.41,1015.15,2017.84,3060.43,2787.53,3164.25,600.27,589.48,44.66,0000 0000 0000 0000 000000
2017-08-19 09:09:16,0.33,1.09,0.00,25.97,30.60,33.35,13.76,43.41,1015.16,2017.80,3049.43,2779.67,3155.60,600.11,589.44,44.71,0000 0000 0000 0000 000000
2017-08-19 09:14:18,0.13,1.10,0.00,25.95,30.60,33.35,13.77,43.48,1015.15,2017.85,3047.30,2778.24,3154.12,600.37,589.67,44.76,0000 0000 0000 0000 000000
2017-08-19 09:19:19,0.14,1.11,0.00,25.94,30.58,33.34,13.76,43.41,1015.17,2017.88,3043.91,2776.11,3151.63,599.93,589.27,44.82,0000 0000 0000 0000 000000
2017-08-19 09:24:21,0.01,1.11,0.00,25.92,30.57,33.31,13.71,43.52,1015.18,2017.96,3043.15,2775.97,3151.06,599.74,589.22,44.87,0000 0000 0000 0000 000000
2017-08-19 09:29:22,0.00,1.11,0.00,25.92,30.56,33.26,13.78,43.54,1015.17,2017.97,3043.01,2775.93,3151.01,599.91,589.17,44.92,0000 0000 0000 0000 000000
2017-08-19 09:34:23,0.02,1.11,0.00,25.92,30.55,33.29,13.75,43.44,1015.17,2017.96,3042.82,2775.41,3151.00,599.80,589.20,44.97,0000 0000 0000 0000 000000
2017-08-19 09:39:25,0.05,1.11,0.00,25.90,30.55,33.30,13.80,43.44,1015.20,2017.99,3041.66,2774.84,3150.40,600.03,589.46,45.02,0000 0000 0000 0000 000000
2017-08-19 09:44:26,0.05,1.12,0.00,25.89,30.52,33.31,13.78,43.45,1015.29,2017.99,3040.31,2774.05,3149.54,599.94,589.48,45.07,0000 0000 0000 0000 000000
2017-08-19 09:49:27,0.01,1.12,0.00,25.88,30.52,33.26,13.79,43.42,1015.36,2017.99,3039.68,2773.94,3149.01,600.16,589.71,45.12,0000 0000 0000 0000 000000
2017-08-19 09:54:29,0.03,1.12,0.00,25.87,30.51,33.25,13.81,43.66,1015.46,2017.99,3039.03,2773.26,3148.93,600.11,589.83,45.17,0000 0000 0000 0000 000000
2017-08-19 09:59:30,0.03,1.12,0.00,25.85,30.50,33.23,13.78,43.42,1015.62,2017.99,3038.42,2773.01,3148.31,599.83,589.67,45.22,0000 0000 0000 0000 000000
2017-08-19 10:04:31,0.00,1.12,0.00,25.85,30.49,33.26,13.78,43.55,1015.64,2017.99,3038.01,2773.00,3148.01,599.76,589.53,45.27,0000 0000 0000 0000 000000
2017-08-19 10:09:33,0.00,1.12,0.00,25.84,30.47,33.20,13.76,43.38,1015.64,2017.99,3037.90,2773.00,3148.00,599.78,589.64,45.32,0000 0000 0000 0000 000000
2017-08-19 10:14:34,0.07,1.12,0.00,25.82,30.47,33.18,13.72,43.44,1015.64,2018.01,3036.80,2772.46,3147.46,600.07,589.86,45.37,0000 0000 0000 0000 000000
2017-08-19 10:19:35,0.07,1.13,0.00,25.80,30.45,33.17,13.71,43.50,1015.65,2018.01,3035.24,2771.30,3146.13,599.83,589.79,45.42,0000 0000 0000 0000 000000
2017-08-19 10:24:36,0.04,1.13,0.00,25.80,30.45,33.18,13.77,43.40,1015.64,2018.00,3034.30,2770.78,3145.30,599.69,589.61,45.47,0000 0000 0000 0000 000000
2017-08-19 10:29:38,0.06,1.13,0.00,25.79,30.43,33.19,13.78,43.45,1015.65,2018.01,3032.97,2769.99,3144.38,600.06,589.99,45.52,0000 0000 0000 0000 000000
2017-08-19 10:34:39,0.07,1.14,0.00,25.77,30.42,33.12,13.83,43.52,1015.64,2018.01,3031.74,2769.19,3143.49,600.23,590.05,45.57,0000 0000 0000 0000 000000
2017-08-19 10:39:40,0.02,1.14,0.00,25.77,30.41,33.13,13.75,43.50,1015.64,2018.04,3030.95,2768.94,3142.96,599.79,589.74,45.62,0000 0000 0000 0000 000000
2017-08-19 10:44:42,0.06,1.14,0.00,25.75,30.40,33.13,13.77,43.61,1015.65,2018.07,3030.06,2768.26,3142.24,600.03,590.02,45.67,0000 0000 0000 0000 000000
2017-08-19 10:49:43,0.08,1.14,0.00,25.75,30.40,33.11,13.76,43.77,1015.64,2018.15,3028.70,2767.45,3141.18,599.92,589.88,45.72,0000 0000 0000 0000 000000
2017-08-19 10:54:44,0.12,1.15,0.00,25.73,30.37,33.08,13.78,43.62,1015.65,2018.30,3026.73,2766.20,3139.61,600.21,590.28,45.78,0000 0000 0000 0000 000000
2017-08-19 10:59:45,0.14,1.16,0.00,25.72,30.37,33.08,13.73,43.62,1015.66,2018.55,3024.34,2764.71,3137.79,599.37,589.62,45.83,0000 0000 0000 0000 000000
2017-08-19 11:04:46,0.19,1.16,0.00,25.71,30.35,33.11,13.85,43.59,1015.67,2018.66,3021.07,2762.56,3135.25,600.39,590.41,45.88,0000 0000 0000 0000 000000
2017-08-19 11:09:48,0.24,1.18,0.00,25.70,30.35,33.05,13.82,43.61,1015.66,2018.80,3016.91,2759.80,3132.12,600.02,590.14,45.93,0000 0000 0000 0000 000000
2017-08-19 11:14:49,0.16,1.19,0.00,25.68,30.34,33.03,13.76,43.49,1015.67,2018.91,3013.32,2757.51,3129.34,599.73,589.86,45.98,0000 0000 0000 0000 000000
2017-08-19 11:19:50,0.13,1.19,0.00,25.67,30.32,33.03,13.77,43.54,1015.66,2018.96,3010.93,2755.89,3127.43,599.99,590.14,46.03,0000 0000 0000 0000 000000
2017-08-19 11:24:51,0.14,1.20,0.00,25.67,30.32,33.04,13.75,43.54,1015.70,2018.97,3008.21,2753.97,3125.22,600.00,590.18,46.08,0000 0000 0000 0000 000000
2017-08-19 11:29:53,0.11,1.21,0.00,25.72,30.30,33.03,13.79,43.48,1015.81,2018.98,3006.11,2752.51,3123.45,599.90,590.01,46.13,0000 0000 0000 0000 000000
2017-08-19 11:34:54,0.09,1.21,0.00,25.80,30.30,33.08,13.78,43.55,1015.86,2018.98,3004.37,2751.28,3121.92,600.18,590.20,46.18,0000 0000 0000 0000 000000
2017-08-19 11:39:55,0.05,1.22,0.00,25.83,30.29,33.09,13.77,43.65,1015.85,2018.99,3003.18,2750.62,3121.04,599.87,589.83,46.23,0000 0000 0000 0000 000000
2017-08-19 11:44:56,0.03,1.22,0.00,25.81,30.27,33.12,13.79,43.73,1015.94,2018.99,3002.65,2750.02,3120.78,600.14,590.11,46.28,0000 0000 0000 0000 000000
2017-08-19 11:49:58,0.01,1.22,0.00,25.77,30.27,33.05,13.80,43.63,1015.99,2018.99,3002.01,2749.98,3120.07,600.03,590.15,46.33,0000 0000 0000 0000 000000
2017-08-19 11:54:59,0.03,1.22,0.00,25.73,30.26,33.04,13.78,43.73,1016.00,2018.99,3001.35,2749.57,3119.98,600.06,590.34,46.38,0000 0000 0000 0000 000000
2017-08-19 12:00:00,0.02,1.22,0.00,25.69,30.25,33.00,13.76,43.56,1016.11,2018.99,3000.96,2749.02,3119.58,600.03,590.41,46.43,0000 0000 0000 0000 000000
2017-08-19 12:05:02,0.02,1.22,0.00,25.65,30.25,32.97,13.76,43.60,1016.12,2018.99,3000.18,2748.98,3119.04,600.11,590.57,46.48,0000 0000 0000 0000 000000
2017-08-19 12:10:03,0.01,1.22,0.00,25.63,30.23,32.99,13.81,43.67,1016.11,2018.99,2999.98,2748.61,3119.00,600.22,590.69,46.53,0000 0000 0000 0000 000000
2017-08-19 12:15:04,0.01,1.23,0.00,25.60,30.22,32.94,13.79,43.63,1016.11,2018.99,2999.75,2748.10,3118.94,600.06,590.51,46.58,0000 0000 0000 0000 000000
2017-08-19 12:20:05,0.01,1.23,0.00,25.58,30.22,32.92,13.77,43.58,1015.95,2019.00,2999.11,2748.01,3118.55,599.99,590.50,46.63,0000 0000 0000 0000 000000
2017-08-19 12:25:07,0.00,1.23,0.00,25.56,30.20,32.93,13.86,43.67,1016.00,2019.00,2999.03,2748.00,3118.25,600.06,590.64,46.69,0000 0000 0000 0000 000000
2017-08-19 12:30:08,0.00,1.23,0.00,25.54,30.20,32.90,13.85,43.59,1016.01,2019.00,2999.00,2748.00,3118.12,600.04,590.73,46.74,0000 0000 0000 0000 000000
2017-08-19 12:35:10,0.00,1.23,0.00,25.52,30.18,32.92,13.82,43.73,1016.06,2019.01,2999.00,2748.00,3118.04,599.76,590.51,46.79,0000 0000 0000 0000 000000
2017-08-19 12:40:11,-0.00,1.23,0.00,25.51,30.17,32.88,13.81,43.79,1016.06,2019.02,2999.00,2748.00,3118.13,600.35,590.93,46.84,0000 0000 0000 0000 000000
2017-08-19 12:45:12,0.00,1.23,0.00,25.50,30.16,32.90,13.78,43.93,1016.04,2019.02,2998.99,2748.00,3118.11,599.70,590.41,46.89,0000 0000 0000 0000 000000
2017-08-19 12:50:13,0.00,1.23,0.00,25.49,30.15,32.86,13.73,44.42,1016.03,2019.04,2998.96,2748.00,3118.04,599.98,590.69,46.94,0000 0000 0000 0000 000000
2017-08-19 12:55:15,0.00,1.23,0.00,25.47,30.14,32.79,13.85,44.31,1015.91,2019.02,2998.84,2747.99,3118.02,600.19,590.75,46.99,0000 0000 0000 0000 000000